This is the latest recevied weather packets stored in our database for station/object F4CYQ-10. If no packets are shown the sender has not sent any weather packets the latest 10 day(s).
| Time | Temp. | Humidity | Pressure | Rain* | Wind** | Luminosity | Snow |
|---|---|---|---|---|---|---|---|
| 1777648892 | 22.22° C | 55% | 1019.6 hPa | - | - | - | - |
| 1777647991 | 22.22° C | 55% | 1019.8 hPa | - | - | - | - |
| 1777647090 | 23.33° C | 55% | 1019.9 hPa | - | - | - | - |
| 1777646837 | 22.22° C | 55% | 1020 hPa | - | - | - | - |
| 1777645936 | 22.22° C | 55% | 1020 hPa | - | - | - | - |
| 1777645035 | 21.67° C | 56% | 1020.1 hPa | - | - | - | - |
| 1777644134 | 22.78° C | 56% | 1020.3 hPa | - | - | - | - |
| 1777643947 | 22.22° C | 56% | 1020.3 hPa | - | - | - | - |
| 1777643779 | 22.78° C | 57% | 1020.4 hPa | - | - | - | - |
| 1777643046 | 21.67° C | 57% | 1020.3 hPa | - | - | - | - |
| 1777642145 | 22.22° C | 57% | 1020.4 hPa | - | - | - | - |
| 1777641244 | 22.78° C | 57% | 1020.4 hPa | - | - | - | - |
| 1777640689 | 21.67° C | 57% | 1020.5 hPa | - | - | - | - |
| 1777639788 | 21.11° C | 58% | 1020.6 hPa | - | - | - | - |
| 1777638887 | 21.11° C | 58% | 1020.6 hPa | - | - | - | - |
| 1777638861 | 21.11° C | 58% | 1021 hPa | - | - | - | - |
| 1777638391 | 20° C | 58% | 1020.6 hPa | - | - | - | - |
| 1777637490 | 20° C | 59% | 1020.8 hPa | - | - | - | - |
| 1777636589 | 21.11° C | 58% | 1021 hPa | - | - | - | - |
| 1777635683 | 21.11° C | 59% | 1021.1 hPa | - | - | - | - |
| 1777635602 | 21.11° C | 58% | 1021.3 hPa | - | - | - | - |
| 1777634782 | 20.56° C | 58% | 1021.1 hPa | - | - | - | - |
| 1777633881 | 21.11° C | 58% | 1021.3 hPa | - | - | - | - |
| 1777633637 | 20.56° C | 58% | 1021.4 hPa | - | - | - | - |
| 1777632736 | 20.56° C | 59% | 1021.5 hPa | - | - | - | - |
* Rain since midnight (hover to see other rain measurements)
** Current wind speed in m/s (hover to see current wind gust speed)